St. Augustine, FL

5:57 PM EST on December 13, 2017 (GMT -0500)
Saint Augustine

Weather History for KSGJ - November, 2012

Change the Weather History Date:

Wednesday, November 21, 2012

  Actual Average Record
Temperature  
Mean Temperature 59 °F -  
Max Temperature 66 °F 70 °F 82 °F (1985)
Min Temperature 52 °F 53 °F 36 °F (1981)
Degree Days  
Heating Degree Days 6    
Growing Degree Days 9 (Base 50)    
Moisture  
Dew Point 52 °F    
Average Humidity 80    
Maximum Humidity 93    
Minimum Humidity 54    
Precipitation  
Precipitation 0.00 in - - ()
Sea Level Pressure  
Sea Level Pressure 30.08 in    
Wind  
Wind Speed 8 mph (NNW)    
Max Wind Speed 15 mph    
Max Gust Speed 21 mph    
Visibility 10 miles    
Events      
Averages and records for this station are not official NWS values.
T = Trace of Precipitation, MM = Missing Value Source: NWS Daily Summary

Daily Weather History Graph

Daily Weather History Graph

Search for Another Location

Airport or City:

Trip Planner

Search our weather history database for the weather conditions in past years. The results will help you decide how hot, cold, wet, or windy it might be!

Date:

Astronomy

Nov. 21, 2012 Rise Set
Actual Time 6:55 AM EST 5:26 PM EST
Civil Twilight 6:30 AM EST 5:52 PM EST
Nautical Twilight 6:00 AM EST 6:21 PM EST
Astronomical Twilight 5:32 AM EST 6:50 PM EST
Moon 1:18 PM EST (11/21) 12:40 AM EST (11/21)
Length of Visible Light 11h 22m
Length of Day
10h 31m
First Quarter, 61% of the Moon is Illuminated
Nov 21
First Quarter
Nov 28
Full
Dec 6
Last Quarter
Dec 13
New
Dec 20
First Quarter

Hourly Weather History & Observations

Time (EST) Temp. Dew Point Humidity Pressure Visibility Wind Dir Wind Speed Gust Speed Precip Events Conditions
12:58 AM 57.0 °F 54.0 °F 89% 30.06 in 10.0 mi West 5.8 mph - N/A   Partly Cloudy
1:58 AM 57.0 °F 54.0 °F 89% 30.05 in 10.0 mi WNW 3.5 mph - N/A   Scattered Clouds
2:58 AM 55.9 °F 54.0 °F 93% 30.04 in 10.0 mi NW 5.8 mph - N/A   Clear
3:58 AM 55.9 °F 53.1 °F 90% 30.04 in 10.0 mi NW 8.1 mph - N/A   Mostly Cloudy
4:58 AM 57.0 °F 53.1 °F 87% 30.05 in 10.0 mi NW 6.9 mph - N/A   Mostly Cloudy
5:58 AM 55.9 °F 53.1 °F 90% 30.06 in 10.0 mi NNW 6.9 mph - N/A   Clear
6:58 AM 55.0 °F 53.1 °F 93% 30.06 in 10.0 mi NNW 6.9 mph - N/A   Mostly Cloudy
7:58 AM 55.9 °F 54.0 °F 93% 30.09 in 10.0 mi NW 5.8 mph - N/A   Partly Cloudy
8:58 AM 61.0 °F 54.0 °F 78% 30.10 in 10.0 mi North 11.5 mph - N/A   Clear
9:58 AM 63.0 °F 55.0 °F 75% 30.11 in 10.0 mi North 12.7 mph - N/A   Clear
10:58 AM 64.0 °F 52.0 °F 65% 30.11 in 10.0 mi North 13.8 mph - N/A   Clear
11:58 AM 66.0 °F 48.9 °F 54% 30.09 in 10.0 mi North 13.8 mph - N/A   Clear
12:58 PM 66.0 °F 51.1 °F 59% 30.07 in 10.0 mi NNE 11.5 mph - N/A   Unknown
1:58 PM 64.9 °F 52.0 °F 63% 30.06 in 10.0 mi North 11.5 mph - N/A   Clear
2:58 PM 64.0 °F 51.1 °F 63% 30.06 in 10.0 mi North 12.7 mph - N/A   Clear
3:58 PM 62.1 °F 48.9 °F 62% 30.06 in 10.0 mi North 15.0 mph 20.7 mph N/A   Clear
4:58 PM 61.0 °F 51.1 °F 70% 30.06 in 10.0 mi North 9.2 mph - N/A   Clear
5:58 PM 59.0 °F 52.0 °F 78% 30.07 in 10.0 mi North 6.9 mph - N/A   Clear
6:58 PM 57.0 °F 52.0 °F 83% 30.07 in 10.0 mi NW 3.5 mph - N/A   Clear
7:58 PM 55.0 °F 51.1 °F 86% 30.08 in 10.0 mi NW 4.6 mph - N/A   Clear
8:58 PM 54.0 °F 51.1 °F 90% 30.10 in 10.0 mi NW 5.8 mph - N/A   Clear
9:58 PM 54.0 °F 50.0 °F 86% 30.11 in 10.0 mi NW 4.6 mph - N/A   Clear
10:58 PM 52.0 °F 48.9 °F 89% 30.11 in 10.0 mi NW 5.8 mph - N/A   Clear
11:58 PM 52.0 °F 48.0 °F 86% 30.10 in 10.0 mi NW 6.9 mph - N/A   Clear